Weather in Ostrov

Russia / Vologda Oblast     60°33′17″N   37°52′56″E
temp.,
°C
wind,
m/s
gust,
m/s
humid.,
%
clouds,
%
prec.,
mm/h
press.,
hPa
HPBL,
m
6 may, thu
thu600:00−2s11915 0.0 100710
03:00−3sse11947 0.0 100812
06:00+1ese2785100 0.0 1006228
09:00+5ese41077100 0.0 1004632
12:00+5ese51491100 0.8 1001694
15:00+11se61382100 0.8 997909
18:00+12sse71482100 1.1 9941163
21:00+10s71488100 2.3 9941304
7 may, fri
fri700:00+5ssw51193100 0.6 9971080
03:00+5ssw61291100 0.8 999969
06:00+4ssw51190100 0.1 1001948
09:00+7ssw6108278 0.4 10021171
12:00+8ssw6107397 0.7 10041376
15:00+9sw596180 1.3 10051613
18:00+9sw386972 0.4 10061354
21:00+5s269082 0.7 1008116
8 may, sat
sat800:00+3s289711 0.0 1009185
03:00+2s259789 0.0 1010110
06:00+5se2890100 0.0 1008255
09:00+6se51394100 1.0 10071116
12:00+6sse61494100 2.7 10051232
15:00+7sse51494100 5.3 10041384
18:00+8se41292100 1.3 10021319
21:00+7ese41094100 4.4 9981144
9 may, sun
sun900:00+7se41098100 2.3 995663
03:00+6ssw299399 5.4 994433
06:00+5s5992100 0.1 994705
09:00+2w61297100 2.4 996809
12:00+2w71595100 0.7 10031156
15:00+8wnw613725 0.9 10091716
18:00+8w5116427 0.0 10141707
21:00+3sw28840 0.0 1018179
10 may, mon
mon1000:00+2sw310855 0.0 1020180
03:00+2ssw3118656 0.0 1021264
06:00+4ssw41180100 0.0 1022356
09:00+8ssw596576 0.0 1023553
12:00+12sw61052100 0.0 10231654
15:00+9ssw51267100 0.0 1023854
18:00+12ssw4117257 0.0 1023740
21:00+9ssw41486100 0.0 1023403